STARLINK-4121, 53002

Orbit data source: Space-Track

STARLINK-4121, 53002 is a payload satellite owned by SpaceX/Seattle (US) in LEO that was launched on Thu, 07 Jul 2022 UTC via an FALCON 9 launch vehicle from the Air Force Eastern Test Range (AFETR). Payload-class satellites include a variety of spacecraft equipped with specific instruments for various scientific and technological missions. These include communications satellites like Starlink; space stations such as the ISS; scientific satellites like the Hubble; Earth observation satellites from companies like Planet Labs, Umbra, and HawkEye 360; GPS; miniature CubeSats for education and research; and military/defense satellites.

Loading next visibility...
Identifier
53002, 2022-076S
Orbit
LEO
Country
Flag of USUS
Related business
Manufacturer
SpaceX/Seattle
Mission
Operational Commercial Communications
Bus & Motor
STARLINK, Unknown motor
Mass
297 kg wet, ~275 kg dry
Launch date (UTC)
2022-07-07 (3 years ago)
Launch vehicle
FALCON 9
Launch site
Air Force Eastern Test Range (AFETR)
Object type
Payload
Rocket body
Debris
Shape & HBR
Box + 1 Pan, 10.1 m
Radar Cross Section
13.562 m², Large (>1 m²)

Expand to show TLE details & history
Last TLE update: 13 hours ago

TLE from 13 hours ago
0 STARLINK-4121
1 53002U 22076S   25340.88336662 -.00000670  00000-0 -23989-4 0  9993
2 53002  53.2178 150.7433 0001360  89.7729 270.3419 15.08849934188838
Epoch: 2025-12-06T21:12Z
TLE epoch observation values (Epoch: 2025-12-06T21:12:02.875Z)
Latitude
-0.00005°
Longitude
116.82657°
Altitude
540.605 km
Speed
7.593 km/s
True Right ascension
10h 02m 58s
True Declination
0° 00' 00"
Sunlit
Object was in daylight at epoch
Visualization orbit readout
Latitude
Unknown
Longitude
Unknown
Altitude
Unknown
Speed
Unknown
Apparent Right ascension
Unknown
Apparent Declination
Unknown
Sunlit
N/A
Visualization observer readout
Local Sidereal Time
08:31:40
Azimuth
Unknown
Elevation
Unknown
Doppler factor
Unknown
Orbital elements
Apogee altitude
540.899 km
Perigee altitude
539.017 km
Semi-major axis
6,918.095 km
Eccentricity
0.00014
Inclination
53.2178°
RAAN
150.7433°
Arg. of periapsis
89.7729°
True anomaly
270.32632°
Mean anomaly
270.3419°
Eccentric anomaly
270.33411°
Mean motion
3.77193 °/min
Orbital period
95.44 mins
BSTAR
-0.000023989
Loading maneuver chart data...
Computing Atmospheric mass density...
Loading historical data...
Loading historical data...
Loading historical data...
Loading historical data...
Loading historical data...
Loading historical data...
Loading historical data...

Documentation

Showing up to 5 results
|